Wind_Speed
46 47 46 47 47 48 47 46 45 44 44 43 42 42 42 42 42 42 42 41 40 41 41 40 39 38 38 39 40 40 40 40 40 39 38 39 40 41 42 43 44 44 44
45 45 46 45 46 46 45 46 46 45 45 44 43 43 43 43 43 42 42 42 41 41 40 40 39 38 38 39 39 39 39 39 39 38 38 39 40 41 42 43 44 44 45
44 45 46 47 47 46 44 44 46 46 44 44 44 43 42 42 42 41 41 41 41 41 40 39 39 38 39 38 38 38 38 38 39 39 39 40 40 41 42 44 44 45 45
43 44 44 45 45 45 45 45 45 45 45 44 43 43 41 41 41 41 41 40 40 39 38 38 38 38 38 38 38 38 38 38 39 39 40 40 41 42 43 44 43 44 44
43 43 43 43 43 44 44 46 46 45 45 44 43 42 42 42 41 40 40 39 38 38 37 37 37 37 38 38 38 38 38 39 39 40 41 41 41 42 43 43 43 43 43
42 41 42 43 42 42 43 45 45 44 43 43 43 41 40 39 39 39 39 39 39 38 38 37 37 37 37 38 38 38 38 39 40 41 41 42 42 43 43 43 42 41 39
41 40 41 42 41 41 42 43 43 42 42 42 42 42 40 39 38 37 37 37 38 38 38 38 38 38 38 38 38 39 39 40 41 41 42 41 42 44 44 42 40 38 37
39 40 40 41 40 40 39 40 41 41 40 40 41 42 42 41 40 39 38 38 38 38 38 38 38 38 38 39 39 39 40 40 40 41 40 40 41 41 40 39 37 36 36
37 38 40 40 40 39 39 40 40 40 39 39 40 40 40 40 40 40 39 39 39 39 38 38 38 39 39 39 39 38 38 38 39 39 38 39 39 39 37 36 36 36 35
36 37 38 39 39 39 39 39 39 39 39 39 39 39 39 40 40 39 38 38 38 39 38 38 38 38 38 37 37 37 37 37 38 38 38 37 37 37 37 36 35 34 34
34 35 35 36 37 38 38 37 38 38 38 38 39 39 40 40 39 39 39 39 38 37 37 37 37 37 37 37 37 37 36 36 36 36 36 36 36 36 35 34 33 33 33
33 34 34 34 35 36 37 37 38 38 39 39 39 39 39 39 38 38 38 37 36 36 35 34 35 35 34 34 34 34 35 35 35 34 35 34 34 34 33 33 33 32 32
31 32 34 34 34 35 36 37 38 38 38 38 39 39 38 38 38 37 37 36 35 34 33 32 32 32 32 32 33 32 32 32 33 34 34 34 33 33 32 32 32 32 32
31 31 32 34 35 35 36 37 37 37 37 36 36 36 36 36 36 36 36 35 34 34 33 32 31 30 31 31 32 32 31 31 32 33 32 32 31 31 31 31 30 30 31
30 31 31 32 32 34 34 34 34 35 35 34 34 34 34 34 34 34 34 34 33 33 33 33 32 31 31 31 31 31 32 33 32 32 31 31 29 29 29 28 28 28 29
28 29 30 31 31 31 31 32 32 33 33 33 34 33 32 32 32 32 32 32 32 32 32 32 31 31 31 31 31 31 32 32 31 30 29 28 27 27 26 26 26 26 26
26 27 28 29 29 29 29 29 30 31 31 31 31 31 31 31 31 31 30 31 31 30 30 30 30 30 29 29 30 30 31 30 29 28 26 26 26 25 24 24 23 23 23
25 25 26 27 28 28 28 28 29 29 30 30 30 30 30 30 30 30 30 30 29 29 29 29 29 29 29 29 29 29 29 28 27 25 25 24 24 22 21 21 21 20 20
23 24 24 25 26 27 27 28 28 28 28 29 28 28 28 28 29 29 29 29 28 28 29 28 28 28 28 28 28 27 27 26 24 24 23 22 21 19 18 18 18 18 17
22 23 23 24 25 26 26 26 27 27 27 27 27 27 27 27 28 28 28 28 28 28 28 27 26 26 26 25 25 24 23 22 21 21 20 18 18 16 16 16 16 15 14
21 22 22 22 23 24 24 24 25 26 26 26 26 26 26 26 26 27 27 27 27 26 26 25 25 25 25 24 23 21 20 19 18 18 17 16 15 14 13 13 13 12 12
19 20 21 21 21 21 21 21 21 22 24 24 25 26 26 25 25 26 26 25 26 25 25 24 24 23 23 22 20 19 18 18 18 16 15 14 13 13 12 12 11 10 10
18 18 18 19 19 20 20 20 20 21 22 23 24 25 25 24 24 24 24 24 24 23 23 22 21 20 20 19 18 18 17 17 16 16 15 14 13 13 11 10 9 8 8
17 17 17 17 17 18 18 19 19 19 20 20 20 21 22 22 22 23 23 23 22 21 21 20 20 19 18 18 17 17 16 16 15 15 14 13 12 11 9 8 7 6 6
15 15 15 15 16 16 17 17 17 17 17 17 18 19 19 20 20 20 20 20 20 19 18 17 17 17 17 17 16 16 15 14 13 13 11 10 10 9 8 7 6 5 4
13 13 14 14 15 15 15 15 15 15 15 16 16 16 17 18 18 18 18 18 17 17 16 16 15 15 15 15 15 14 13 12 11 11 10 9 8 8 6 5 5 4 3
Wind_Direction
249 250 251 251 251 251 252 252 253 254 256 256 256 256 258 259 260 263 264 266 268 271 272 274 277 281 283 285 288 290 291 293 295 296 298 300 302 304 305 306 306 308 309
249 250 251 251 251 251 252 252 252 254 256 256 256 258 258 259 260 262 263 266 269 271 272 274 277 280 283 285 287 289 291 293 295 296 298 300 302 303 305 307 308 309 310
249 250 252 253 252 252 252 252 252 253 254 255 256 257 258 259 260 262 264 266 268 270 272 274 276 279 282 285 286 288 290 292 294 297 299 300 302 303 305 308 309 309 310
250 251 253 254 253 252 252 252 252 253 254 255 255 255 257 258 260 262 263 265 267 269 270 272 274 278 281 284 286 288 290 292 293 296 299 300 302 304 306 307 308 310 311
250 250 252 253 253 251 251 251 253 253 253 253 254 255 256 258 259 261 261 263 265 267 269 272 273 278 281 283 285 287 290 291 293 295 298 300 302 304 305 307 308 310 311
250 250 250 251 251 251 250 250 251 252 252 253 253 255 257 258 259 260 261 263 263 266 269 272 274 277 280 282 285 287 289 292 294 295 298 300 301 303 305 307 310 311 311
248 247 248 248 249 249 249 250 250 250 251 253 253 255 256 257 259 262 264 264 264 266 269 272 275 277 278 280 283 285 288 291 294 296 298 300 301 302 305 307 310 312 312
247 245 246 247 248 248 247 247 248 250 251 252 254 254 256 258 260 263 264 264 265 267 269 272 274 276 277 280 282 285 287 290 293 296 299 300 301 303 305 308 311 312 312
249 246 245 246 246 247 248 248 248 249 251 252 253 254 256 258 259 261 262 265 266 267 270 272 274 277 279 280 282 284 286 289 293 296 299 301 302 305 306 308 310 311 312
249 247 246 247 247 248 249 248 248 250 251 253 254 255 256 257 258 259 261 263 265 268 270 273 274 276 278 279 281 283 287 289 291 294 298 300 302 304 306 307 309 311 312
247 246 247 249 248 248 248 248 249 250 251 253 254 254 256 257 258 259 261 261 264 267 269 272 274 277 278 278 281 284 286 288 291 293 297 299 300 303 305 306 308 310 311
248 248 248 248 248 247 248 249 250 251 252 253 254 255 256 257 258 259 260 261 263 265 267 271 273 275 276 277 281 284 286 289 291 293 296 298 300 302 304 305 307 309 310
251 249 249 249 249 250 250 250 251 252 252 253 253 254 256 257 258 259 260 261 262 263 265 269 272 274 275 277 281 285 288 290 292 294 296 297 298 300 302 304 306 307 309
251 251 251 250 250 250 250 250 250 250 251 252 252 254 255 255 257 258 259 260 260 262 264 267 270 273 275 277 281 285 287 290 292 295 296 297 298 299 301 303 305 307 309
253 252 252 252 250 251 251 251 249 249 249 250 251 252 253 254 256 258 258 259 259 261 263 265 267 270 274 277 280 284 287 290 292 294 296 297 297 299 301 303 305 307 310
256 254 253 251 250 251 251 249 248 248 247 248 249 251 254 255 255 255 256 257 258 260 262 265 267 270 273 276 279 283 287 289 292 294 296 297 298 300 301 303 306 309 312
256 254 253 251 250 250 249 248 247 248 247 247 248 251 253 253 253 252 255 256 257 260 263 265 267 269 273 276 279 281 285 287 290 292 294 296 298 299 301 304 308 312 314
256 254 253 253 251 250 249 249 249 249 249 249 249 250 251 251 250 252 254 256 258 261 263 265 267 270 273 276 278 280 283 285 287 288 291 294 297 298 300 304 309 313 316
257 255 255 254 252 251 251 251 250 249 249 248 247 248 249 249 249 251 253 256 259 261 263 265 268 271 274 275 277 279 281 283 284 285 288 291 296 298 300 303 309 314 317
258 257 255 254 252 252 251 250 248 248 248 247 246 247 249 249 250 252 254 256 258 261 263 265 268 271 273 273 274 276 277 279 281 282 284 289 294 299 302 304 310 314 317
259 257 255 254 253 252 251 249 248 247 246 245 245 246 249 250 252 253 254 254 257 259 262 265 268 271 272 271 271 272 273 274 278 280 282 287 293 297 302 306 311 314 318
258 258 256 254 251 250 248 248 246 245 244 244 245 247 248 251 253 254 254 255 257 258 260 263 266 269 270 268 265 267 269 271 273 276 279 284 290 296 301 303 306 310 318
258 258 256 252 247 245 245 246 244 243 245 246 247 246 248 250 252 253 254 256 258 258 259 259 261 263 264 262 262 265 266 268 271 270 273 280 286 290 294 295 299 306 316
255 255 253 249 244 241 242 244 243 244 244 245 245 245 247 249 251 253 255 255 255 256 257 257 258 260 259 257 257 259 263 265 267 268 272 277 281 283 284 285 289 298 311
254 252 249 246 243 242 242 242 242 242 242 244 245 245 247 248 249 252 253 253 253 254 255 256 257 256 253 252 253 256 258 258 261 264 266 271 274 275 276 276 278 284 299
250 247 245 242 240 240 239 239 239 239 241 243 243 245 248 249 249 251 251 252 253 253 252 253 253 251 249 248 249 251 251 249 250 254 257 262 266 267 265 263 262 267 283
Height
5666 5668 5671 5674 5676 5679 5681 5684 5687 5689 5691 5693 5695 5697 5699 5700 5701 5702 5703 5703 5703 5703 5702 5702 5701 5699 5697 5695 5692 5689 5685 5682 5678 5675 5669 5664 5659 5654 5648 5642 5636 5629 5623
5655 5657 5660 5663 5665 5668 5671 5673 5676 5679 5681 5683 5685 5687 5688 5690 5691 5692 5692 5693 5693 5693 5693 5692 5691 5689 5687 5685 5682 5679 5676 5672 5669 5666 5661 5656 5651 5645 5640 5634 5627 5620 5614
5644 5646 5649 5651 5654 5657 5660 5663 5666 5669 5671 5673 5675 5677 5678 5679 5681 5681 5682 5683 5683 5683 5682 5682 5681 5680 5678 5676 5673 5670 5667 5664 5660 5656 5652 5647 5642 5636 5631 5625 5618 5611 5604
5633 5635 5638 5640 5643 5646 5649 5652 5655 5658 5660 5662 5664 5666 5668 5669 5670 5671 5672 5672 5673 5673 5672 5672 5671 5670 5668 5666 5664 5661 5658 5655 5651 5647 5643 5638 5633 5628 5622 5616 5610 5603 5596
5622 5624 5627 5629 5632 5635 5638 5641 5644 5646 5649 5651 5653 5655 5657 5658 5659 5660 5661 5662 5663 5663 5662 5662 5661 5660 5659 5657 5655 5652 5649 5646 5643 5639 5634 5629 5624 5619 5614 5607 5600 5594 5587
5610 5613 5616 5618 5621 5624 5626 5629 5632 5635 5637 5640 5642 5644 5646 5647 5648 5649 5651 5652 5652 5652 5652 5652 5651 5650 5649 5647 5645 5643 5640 5637 5634 5630 5625 5620 5615 5610 5604 5598 5591 5585 5579
5599 5602 5605 5608 5611 5613 5615 5618 5621 5624 5626 5628 5630 5632 5634 5636 5638 5639 5640 5641 5641 5642 5642 5642 5641 5640 5639 5637 5635 5633 5630 5627 5624 5620 5616 5611 5606 5601 5595 5590 5583 5576 5570
5588 5592 5595 5597 5600 5602 5605 5608 5610 5613 5615 5617 5619 5621 5623 5626 5627 5629 5630 5631 5631 5632 5632 5632 5631 5630 5629 5628 5626 5623 5621 5618 5615 5611 5607 5602 5597 5591 5586 5580 5574 5570 5564
5578 5581 5584 5587 5589 5592 5594 5597 5599 5601 5604 5606 5608 5610 5612 5614 5616 5618 5619 5620 5621 5621 5621 5621 5621 5620 5619 5617 5616 5614 5612 5609 5605 5602 5597 5593 5588 5583 5577 5573 5568 5563 5558
5568 5571 5573 5576 5579 5581 5584 5586 5588 5591 5593 5595 5598 5600 5602 5604 5605 5607 5609 5610 5610 5611 5611 5611 5611 5610 5608 5607 5606 5604 5602 5600 5597 5593 5589 5584 5580 5575 5570 5565 5560 5556 5551
5559 5561 5563 5566 5568 5571 5573 5576 5578 5580 5583 5585 5587 5589 5591 5593 5594 5596 5598 5599 5600 5601 5601 5601 5600 5599 5598 5597 5596 5594 5592 5590 5587 5584 5580 5576 5572 5567 5563 5558 5553 5549 5543
5549 5551 5554 5556 5558 5560 5563 5565 5567 5570 5572 5574 5576 5579 5580 5582 5584 5586 5587 5588 5590 5591 5591 5591 5590 5590 5589 5588 5586 5585 5583 5581 5578 5575 5572 5568 5564 5560 5556 5551 5547 5542 5536
5540 5542 5544 5546 5548 5551 5553 5555 5557 5559 5561 5564 5566 5568 5570 5572 5574 5575 5577 5578 5579 5580 5581 5581 5581 5580 5579 5579 5578 5576 5574 5572 5570 5567 5564 5560 5557 5553 5548 5544 5540 5535 5530
5531 5533 5534 5536 5538 5540 5542 5544 5547 5549 5551 5553 5555 5558 5560 5562 5563 5565 5567 5568 5569 5570 5571 5572 5572 5571 5571 5570 5569 5568 5566 5564 5561 5559 5555 5552 5549 5545 5541 5537 5533 5528 5524
5522 5524 5525 5527 5528 5530 5532 5534 5536 5538 5541 5544 5546 5548 5550 5552 5554 5555 5556 5558 5560 5560 5561 5562 5562 5562 5562 5562 5561 5559 5558 5556 5553 5550 5547 5544 5541 5538 5534 5530 5526 5522 5518
5513 5514 5516 5517 5519 5520 5522 5524 5526 5529 5531 5534 5536 5538 5540 5542 5544 5545 5547 5549 5550 5551 5552 5552 5553 5553 5553 5553 5552 5551 5549 5547 5544 5542 5539 5537 5534 5531 5528 5524 5521 5517 5512
5504 5505 5507 5508 5510 5512 5513 5515 5517 5519 5522 5524 5527 5529 5531 5533 5535 5536 5538 5540 5541 5542 5543 5543 5544 5545 5544 5544 5543 5542 5540 5538 5536 5535 5532 5530 5527 5525 5522 5519 5516 5512 5507
5496 5497 5498 5500 5501 5503 5504 5506 5508 5510 5513 5515 5517 5520 5522 5524 5526 5527 5529 5531 5532 5533 5534 5535 5535 5536 5535 5535 5534 5533 5532 5530 5529 5527 5526 5524 5521 5519 5516 5514 5511 5507 5504
5488 5489 5490 5491 5492 5494 5496 5497 5499 5501 5503 5506 5508 5511 5513 5515 5517 5519 5520 5522 5524 5525 5526 5527 5527 5527 5527 5526 5526 5525 5524 5523 5522 5521 5519 5517 5515 5513 5511 5509 5506 5503 5500
5480 5481 5482 5483 5484 5486 5487 5489 5491 5493 5495 5497 5500 5502 5505 5507 5509 5510 5512 5514 5515 5516 5517 5518 5518 5518 5518 5518 5517 5517 5516 5516 5515 5514 5513 5512 5510 5509 5507 5505 5503 5500 5497
5473 5473 5474 5475 5476 5477 5479 5481 5483 5485 5487 5489 5492 5494 5497 5499 5501 5502 5504 5505 5507 5508 5509 5510 5510 5510 5510 5510 5510 5510 5510 5509 5509 5508 5507 5507 5505 5504 5503 5501 5499 5497 5495
5466 5466 5467 5467 5468 5470 5472 5474 5475 5478 5480 5482 5485 5487 5489 5491 5493 5494 5496 5497 5499 5500 5501 5501 5502 5502 5502 5503 5503 5503 5503 5503 5503 5503 5502 5502 5501 5500 5499 5498 5496 5494 5492
5459 5459 5460 5460 5461 5463 5465 5467 5469 5471 5473 5475 5477 5480 5481 5483 5485 5486 5488 5489 5490 5492 5492 5493 5494 5495 5495 5496 5496 5497 5498 5498 5498 5498 5498 5498 5497 5497 5496 5495 5493 5492 5490
5452 5453 5453 5454 5456 5457 5460 5462 5463 5465 5467 5469 5471 5473 5475 5476 5478 5479 5481 5482 5483 5484 5485 5486 5487 5488 5489 5490 5491 5492 5492 5493 5493 5493 5494 5494 5493 5493 5492 5492 5491 5490 5489
5447 5447 5448 5449 5451 5453 5455 5456 5458 5460 5462 5463 5465 5467 5468 5470 5471 5473 5474 5475 5477 5478 5479 5480 5481 5482 5483 5484 5485 5486 5487 5488 5488 5489 5490 5490 5490 5490 5489 5489 5488 5488 5487
5442 5443 5444 5445 5446 5448 5450 5452 5454 5455 5457 5458 5460 5461 5463 5464 5466 5467 5468 5469 5471 5472 5473 5474 5475 5476 5478 5479 5480 5482 5483 5483 5484 5485 5486 5487 5487 5487 5487 5487 5486 5486 5486